Torna al catalogo

STARLINK-31011

AttivoComunicazioniVLEO
NORAD 58517·PAYLOAD·🇺🇸 United States

Lanciato Dec 7, 2023 da Cape Canaveral Space Force Station

Loading…

Prossimi Passaggi (prossime 24 ore)

TLE

AggiornatoSource: CelesTrak SupGP

Epoca: Sep 14, 2026, 22:26 UTC

1 58517C 23191K   26257.93520833  .00010093  00000+0  36564-3 0  2573
2 58517  42.9993 114.2948 0001413 271.2835 265.0161 15.27567641    16

Traccia STARLINK-31011 in tempo reale con AllMySat

Download on the App Store